QPF
0.12 0.12 0.08 0.06 0.02 0.02 0.02 0.01 0.00 0.00 0.00 0.00 0.00 0.00 0.00 0.00 0.00 0.00 0.00 0.00 0.00 0.00 0.00 0.02 0.03 0.03 0.05
0.08 0.17 0.21 0.15 0.06 0.03 0.02 0.01 0.00 0.00 0.00 0.00 0.00 0.00 0.00 0.00 0.00 0.00 0.00 0.00 0.00 0.00 0.00 0.01 0.01 0.03 0.04
0.06 0.12 0.15 0.14 0.17 0.10 0.03 0.01 0.00 0.01 0.00 0.00 0.00 0.00 0.01 0.00 0.01 0.00 0.00 0.00 0.00 0.00 0.00 0.00 0.00 0.01 0.02
0.05 0.10 0.18 0.16 0.17 0.21 0.13 0.02 0.00 0.00 0.01 0.00 0.00 0.00 0.00 0.01 0.01 0.00 0.01 0.00 0.00 0.00 0.00 0.00 0.00 0.00 0.01
0.05 0.07 0.12 0.15 0.18 0.19 0.14 0.07 0.01 0.00 0.00 0.00 0.00 0.00 0.00 0.00 0.01 0.01 0.00 0.00 0.00 0.00 0.00 0.00 0.00 0.00 0.01
0.01 0.08 0.12 0.09 0.09 0.06 0.09 0.15 0.13 0.03 0.01 0.00 0.00 0.00 0.00 0.00 0.00 0.00 0.00 0.00 0.00 0.00 0.00 0.00 0.00 0.01 0.01
0.00 0.00 0.04 0.09 0.14 0.11 0.04 0.11 0.09 0.01 0.01 0.02 0.00 0.00 0.00 0.00 0.00 0.00 0.00 0.00 0.00 0.00 0.00 0.00 0.00 0.00 0.01
0.00 0.00 0.00 0.03 0.10 0.18 0.14 0.04 0.03 0.04 0.05 0.14 0.06 0.02 0.00 0.00 0.00 0.00 0.00 0.00 0.00 0.00 0.00 0.00 0.00 0.00 0.00
0.00 0.00 0.00 0.03 0.06 0.11 0.14 0.16 0.20 0.20 0.13 0.06 0.05 0.02 0.01 0.01 0.00 0.00 0.00 0.00 0.00 0.01 0.01 0.00 0.00 0.00 0.01
0.00 0.00 0.00 0.00 0.02 0.10 0.09 0.14 0.16 0.20 0.15 0.05 0.04 0.03 0.04 0.01 0.00 0.00 0.00 0.00 0.00 0.01 0.01 0.01 0.01 0.01 0.01
0.00 0.00 0.00 0.00 0.00 0.02 0.06 0.09 0.11 0.14 0.07 0.02 0.05 0.06 0.03 0.03 0.01 0.02 0.02 0.01 0.00 0.01 0.01 0.01 0.01 0.01 0.00
0.01 0.00 0.00 0.00 0.00 0.01 0.02 0.04 0.04 0.04 0.03 0.02 0.04 0.07 0.04 0.02 0.03 0.02 0.02 0.00 0.00 0.00 0.00 0.00 0.01 0.00 0.00
0.02 0.00 0.00 0.00 0.00 0.00 0.01 0.03 0.05 0.04 0.05 0.03 0.03 0.04 0.05 0.05 0.01 0.01 0.00 0.00 0.00 0.00 0.00 0.00 0.00 0.00 0.00
0.01 0.00 0.00 0.00 0.00 0.00 0.00 0.01 0.06 0.09 0.07 0.05 0.02 0.01 0.02 0.02 0.01 0.01 0.01 0.00 0.00 0.00 0.00 0.00 0.01 0.01 0.01
0.00 0.00 0.00 0.00 0.00 0.01 0.01 0.01 0.02 0.03 0.06 0.09 0.07 0.04 0.03 0.01 0.03 0.02 0.01 0.01 0.00 0.00 0.00 0.00 0.02 0.04 0.06
0.00 0.00 0.00 0.00 0.00 0.02 0.02 0.02 0.02 0.01 0.02 0.05 0.06 0.07 0.13 0.11 0.06 0.02 0.01 0.00 0.00 0.01 0.03 0.03 0.03 0.05 0.06
0.00 0.00 0.00 0.00 0.00 0.01 0.04 0.03 0.02 0.03 0.03 0.02 0.04 0.07 0.09 0.09 0.05 0.03 0.01 0.00 0.00 0.02 0.05 0.05 0.05 0.07 0.09
MSLP
1011.87 1010.22 1010.05 1010.51 1010.56 1010.66 1011.19 1011.87 1012.54 1013.22 1013.67 1014.31 1015.07 1015.71 1016.20 1016.83 1017.42 1018.08 1018.61 1019.26 1019.75 1020.13 1020.59 1020.97 1021.40 1021.90 1022.37
1012.28 1011.00 1009.70 1009.81 1009.91 1010.03 1010.30 1010.65 1011.21 1012.21 1012.85 1013.34 1013.91 1014.57 1015.15 1015.73 1016.42 1016.95 1017.53 1018.06 1018.65 1019.14 1019.68 1020.02 1020.40 1020.87 1021.33
1011.91 1011.14 1009.70 1008.73 1009.24 1009.44 1009.46 1009.87 1010.23 1010.62 1011.58 1012.21 1012.86 1013.41 1014.00 1014.55 1015.16 1015.59 1016.23 1016.90 1017.51 1018.07 1018.61 1019.06 1019.52 1019.88 1020.22
1012.09 1011.09 1010.38 1007.73 1007.74 1008.40 1008.45 1008.95 1009.35 1009.75 1010.60 1010.94 1011.76 1012.31 1012.90 1013.36 1013.90 1014.39 1014.89 1015.57 1016.37 1016.81 1017.43 1017.95 1018.49 1018.93 1019.31
1011.90 1011.05 1009.78 1008.52 1006.62 1006.77 1006.95 1007.42 1007.83 1008.62 1009.29 1009.90 1010.67 1011.21 1011.59 1012.15 1012.65 1013.24 1013.67 1014.35 1014.89 1015.49 1015.96 1016.63 1017.20 1017.74 1018.15
1011.74 1010.73 1008.97 1008.42 1007.34 1005.31 1005.27 1006.01 1006.51 1007.14 1008.03 1008.51 1009.33 1009.60 1009.97 1010.39 1010.92 1011.49 1012.41 1012.97 1013.74 1014.15 1014.74 1015.35 1015.94 1016.36 1016.93
1010.71 1009.92 1009.25 1007.96 1007.38 1006.10 1004.04 1004.78 1004.40 1005.21 1006.58 1007.16 1007.81 1008.24 1008.52 1008.79 1009.35 1009.99 1010.65 1011.32 1012.14 1012.71 1013.38 1013.85 1014.47 1015.07 1015.54
1009.40 1008.58 1008.56 1008.16 1008.27 1007.22 1006.40 1003.88 1003.47 1003.89 1004.80 1005.40 1006.31 1006.66 1007.24 1007.50 1008.04 1008.52 1009.18 1009.84 1010.67 1011.42 1012.03 1012.48 1013.07 1013.56 1014.16
1008.07 1007.71 1007.28 1006.92 1006.81 1007.36 1006.44 1004.99 1002.65 1002.60 1003.28 1003.58 1004.78 1005.66 1005.97 1006.44 1006.81 1007.31 1007.76 1008.41 1009.09 1009.82 1010.60 1011.21 1011.89 1012.35 1012.98
1006.57 1006.33 1005.98 1005.65 1005.47 1005.25 1004.63 1004.54 1004.18 1001.59 1001.36 1002.31 1003.38 1004.45 1005.46 1005.37 1005.82 1006.26 1006.83 1007.31 1007.86 1008.48 1009.25 1009.86 1010.66 1011.38 1012.03
1004.95 1004.64 1004.52 1004.18 1003.50 1003.25 1002.96 1003.26 1002.89 1001.69 1000.14 1000.93 1002.19 1003.29 1003.78 1004.50 1004.71 1005.06 1005.52 1006.01 1006.61 1007.52 1008.06 1008.60 1009.26 1009.98 1010.56
1003.25 1002.55 1002.48 1002.22 1001.87 1001.53 1000.93 1001.11 1000.79 1000.93 999.92 999.55 1000.72 1001.40 1002.42 1003.81 1004.37 1004.64 1004.40 1004.91 1005.56 1006.05 1006.82 1007.30 1008.23 1008.94 1008.95
1001.41 1000.69 1000.38 1000.44 1000.69 1000.37 999.86 998.94 998.76 999.07 999.59 998.24 998.97 999.68 1000.93 1001.84 1003.09 1003.98 1004.58 1004.57 1004.61 1005.13 1005.84 1006.41 1007.00 1008.03 1008.49
999.47 998.91 999.19 999.06 999.14 999.25 998.28 997.27 997.14 997.13 997.70 997.40 997.35 998.20 999.28 1000.36 1001.47 1002.53 1003.17 1003.80 1004.15 1004.30 1005.23 1005.91 1006.23 1006.76 1007.20
997.32 997.12 997.12 997.31 997.09 997.64 997.28 996.81 995.36 995.52 996.64 997.47 996.42 996.93 998.04 998.92 1000.52 1001.20 1002.25 1002.83 1003.00 1003.70 1004.74 1005.77 1006.33 1006.42 1006.67
994.76 994.87 994.91 995.17 995.19 995.77 995.73 995.40 994.08 993.43 994.49 995.73 996.41 997.85 998.52 999.53 999.55 1000.13 1001.01 1001.85 1002.66 1003.26 1003.99 1005.28 1006.37 1006.53 1006.54
992.31 992.30 992.51 992.85 993.19 993.52 993.67 993.61 993.31 991.73 992.48 993.90 994.78 995.82 997.37 998.06 999.11 999.25 999.49 1000.80 1001.91 1003.03 1003.44 1004.09 1004.89 1005.95 1006.47
Thickness
5559 5582 5592 5591 5595 5600 5603 5605 5603 5604 5606 5606 5605 5605 5606 5605 5604 5602 5601 5598 5596 5595 5593 5592 5589 5586 5582
5537 5558 5580 5584 5587 5590 5593 5596 5600 5597 5599 5601 5601 5601 5603 5603 5601 5601 5599 5597 5595 5593 5591 5589 5587 5584 5582
5521 5536 5561 5575 5575 5578 5583 5586 5591 5596 5593 5595 5596 5598 5599 5600 5599 5601 5599 5596 5594 5592 5590 5587 5584 5582 5580
5496 5515 5530 5565 5570 5571 5575 5578 5584 5587 5587 5591 5592 5593 5593 5595 5597 5598 5597 5596 5592 5592 5589 5586 5583 5580 5577
5472 5492 5515 5534 5562 5572 5575 5580 5580 5579 5581 5583 5586 5588 5592 5592 5593 5594 5596 5595 5593 5590 5588 5585 5582 5580 5577
5444 5467 5504 5519 5537 5563 5575 5572 5572 5577 5575 5580 5579 5586 5590 5592 5594 5595 5593 5592 5588 5588 5586 5584 5580 5579 5576
5425 5452 5473 5503 5519 5537 5569 5568 5575 5579 5571 5572 5573 5578 5585 5590 5592 5592 5592 5591 5588 5586 5584 5584 5580 5577 5574
5413 5442 5454 5471 5482 5506 5521 5556 5566 5567 5567 5569 5573 5578 5580 5584 5587 5589 5588 5590 5587 5584 5582 5581 5579 5577 5573
5395 5416 5436 5453 5470 5478 5496 5515 5556 5567 5568 5573 5570 5572 5575 5578 5583 5584 5586 5586 5586 5583 5579 5576 5573 5572 5567
5375 5395 5418 5436 5454 5469 5492 5498 5514 5554 5568 5570 5567 5565 5557 5573 5576 5578 5579 5580 5580 5581 5575 5573 5569 5565 5561
5352 5377 5398 5420 5444 5464 5481 5492 5506 5533 5561 5567 5562 5556 5558 5559 5570 5574 5576 5577 5577 5572 5570 5568 5566 5564 5562
5332 5364 5388 5412 5437 5456 5479 5489 5507 5523 5543 5558 5549 5561 5563 5544 5556 5560 5571 5571 5569 5571 5568 5567 5562 5560 5564
5316 5351 5382 5408 5421 5437 5458 5485 5502 5514 5520 5545 5552 5560 5558 5559 5552 5550 5550 5558 5564 5565 5563 5562 5562 5556 5556
5307 5344 5366 5383 5401 5424 5449 5477 5492 5509 5517 5534 5549 5552 5552 5556 5551 5545 5547 5550 5554 5558 5554 5550 5552 5550 5552
5293 5323 5347 5367 5393 5411 5432 5455 5483 5505 5511 5513 5536 5542 5542 5545 5541 5546 5544 5542 5551 5550 5544 5539 5536 5540 5542
5284 5306 5333 5355 5383 5399 5420 5437 5474 5504 5512 5509 5515 5516 5520 5521 5532 5539 5539 5539 5537 5538 5535 5530 5523 5524 5528
5273 5294 5318 5344 5368 5387 5408 5429 5454 5495 5504 5504 5512 5522 5521 5532 5522 5530 5539 5532 5529 5524 5526 5524 5525 5516 5514